Track COSMOS 2139 (GLONASS) now! COSMOS 2139 (GLONASS) is classified as:
1 21216U 91025A 26247.72634674 -.00000009 00000-0 00000-0 0 9999 2 21216 64.3084 301.6122 0017695 220.6324 139.3091 2.13105517275624